Weather History for Winner, SD

Change the Weather History Date:

Friday, March 1, 2013

  Actual Average Record
Temperature  
Mean Temperature 26 °F 31 °F  
Max Temperature 32 °F 42 °F 40 °F (2012)
Min Temperature 20 °F 21 °F -15 °F (2009)
Degree Days  
Heating Degree Days 39 34  
Month to date heating degree days 39 34  
Since 1 July heating degree days 4702 5043  
Cooling Degree Days 0 0  
Month to date cooling degree days 0 0  
Year to date cooling degree days 0 0  
Moisture  
Dew Point 21 °F    
Average Humidity 82    
Maximum Humidity 92    
Minimum Humidity 72    
Precipitation  
Precipitation 0.00 in 0.01 in 0.01 in (2014)
Month to date precipitation 0.00 0.01  
Year to date precipitation 0.00 0.77  
Sea Level Pressure  
Sea Level Pressure 30.34 in    
Wind  
Wind Speed 4 mph (ENE)    
Max Wind Speed 9 mph    
Max Gust Speed 12 mph    
Visibility 7 miles    
Events      
T = Trace of Precipitation, MM = Missing Value Source: NWS Daily Summary

Daily Weather History Graph

Daily Weather History Graph

Search for Another Location

Airport:

Trip Planner

Search our weather history database for the weather conditions in past years. The results will help you decide how hot, cold, wet, or windy it might be!

Date:

Astronomy

Mar. 01, 2013 Rise Set
Actual Time 7:15 AM CST 6:28 PM CST
Civil Twilight 6:46 AM CST 6:57 PM CST
Nautical Twilight 6:13 AM CST 7:30 PM CST
Astronomical Twilight 5:40 AM CST 8:03 PM CST
Moon 11:13 PM CST (3/1) 8:54 AM CST (3/1)
Length of Visible Light 12h 10m
Length of Day
11h 13m
Waning Gibbous, 83% of the Moon is Illuminated
Mar 1
Waning Gibbous
Mar 4
Last Quarter
Mar 11
New
Mar 19
First Quarter
Mar 27
Full

Hourly Weather History & Observations

Time (CST) Temp. Windchill Dew Point Humidity Pressure Visibility Wind Dir Wind Speed Gust Speed Precip Events Conditions
12:12 AM 21.2 °F 16.4 °F 19.4 °F 93% 30.25 in 10.0 mi East 3.5 mph - N/A   Overcast
12:53 AM 21.9 °F - 19.9 °F 92% 30.33 in 8.0 mi Calm Calm - N/A   Overcast
1:53 AM 21.9 °F - 19.9 °F 92% 30.34 in 6.0 mi Calm Calm - N/A   Overcast
2:37 AM 21.2 °F - 19.4 °F 93% 30.26 in 2.0 mi Calm Calm - N/A   Overcast
2:49 AM 21.2 °F - 21.2 °F 100% 30.25 in 1.8 mi Calm Calm - N/A   Overcast
2:53 AM 21.9 °F - 19.9 °F 92% 30.33 in 2.5 mi Calm Calm - N/A   Overcast
3:04 AM 21.2 °F 16.4 °F 19.4 °F 93% 30.24 in 1.8 mi East 3.5 mph - N/A   Overcast
3:16 AM 21.2 °F 16.4 °F 19.4 °F 93% 30.24 in 0.8 mi East 3.5 mph - N/A   Mist
3:26 AM 21.2 °F 16.4 °F 19.4 °F 93% 30.24 in 2.0 mi Variable 3.5 mph - N/A   Overcast
4:24 AM 21.2 °F 16.4 °F 19.4 °F 93% 30.24 in 1.2 mi East 3.5 mph - N/A   Overcast
4:36 AM 23.0 °F - 19.4 °F 86% 30.25 in 2.5 mi Calm Calm - N/A   Overcast
4:45 AM 23.0 °F 17.0 °F 19.4 °F 86% 30.26 in 4.0 mi NNE 4.6 mph - N/A   Overcast
4:53 AM 23.0 °F 18.4 °F 19.9 °F 88% 30.34 in 4.0 mi ENE 3.5 mph - N/A   Overcast
6:53 AM 23.0 °F - 19.9 °F 88% 30.36 in 10.0 mi Calm Calm - N/A   Overcast
7:53 AM 23.0 °F 17.0 °F 19.9 °F 88% 30.37 in 8.0 mi ENE 4.6 mph - N/A   Overcast
8:53 AM 23.0 °F 15.8 °F 19.9 °F 88% 30.40 in 6.0 mi NNE 5.8 mph - N/A   Overcast
9:53 AM 24.1 °F 19.7 °F 21.0 °F 88% 30.41 in 6.0 mi NE 3.5 mph - N/A   Overcast
10:53 AM 24.1 °F - 21.9 °F 91% 30.43 in 7.0 mi Calm Calm - N/A   Overcast
11:53 AM 25.0 °F 20.7 °F 21.9 °F 88% 30.43 in 10.0 mi North 3.5 mph - N/A   Overcast
12:06 PM 24.8 °F 19.1 °F 21.2 °F 86% 30.33 in 10.0 mi NNW 4.6 mph - N/A   Overcast
12:53 PM 27.0 °F 23.0 °F 21.9 °F 81% 30.42 in 10.0 mi NNE 3.5 mph - N/A   Overcast
1:36 PM 30.2 °F 25.4 °F 23.0 °F 75% 30.32 in 10.0 mi NNE 4.6 mph - N/A   Overcast
1:53 PM 30.0 °F 26.5 °F 23.0 °F 75% 30.39 in 10.0 mi NNW 3.5 mph - N/A   Mostly Cloudy
2:53 PM 30.0 °F 25.2 °F 23.0 °F 75% 30.38 in 10.0 mi NNE 4.6 mph - N/A   Overcast
3:45 PM 32.0 °F 28.7 °F 24.8 °F 75% 30.30 in 10.0 mi Variable 3.5 mph - N/A   Mostly Cloudy
3:53 PM 30.9 °F 26.2 °F 24.1 °F 76% 30.38 in 10.0 mi North 4.6 mph - N/A   Mostly Cloudy
4:10 PM 32.0 °F 25.6 °F 23.0 °F 69% 30.30 in 10.0 mi NE 6.9 mph - N/A   Overcast
4:40 PM 30.2 °F 23.4 °F 23.0 °F 75% 30.31 in 10.0 mi ENE 6.9 mph - N/A   Mostly Cloudy
4:53 PM 30.0 °F 24.1 °F 23.0 °F 75% 30.39 in 10.0 mi East 5.8 mph - N/A   Scattered Clouds
5:53 PM 28.0 °F 22.8 °F 21.9 °F 78% 30.39 in 10.0 mi East 4.6 mph - N/A   Clear
6:53 PM 26.1 °F 21.9 °F 19.9 °F 78% 30.40 in 10.0 mi ESE 3.5 mph - N/A   Clear
8:53 PM 21.9 °F 15.7 °F 19.0 °F 89% 30.41 in 10.0 mi SE 4.6 mph - N/A   Clear
9:53 PM 19.9 °F 12.1 °F 17.1 °F 89% 30.40 in 10.0 mi SSE 5.8 mph - N/A   Clear
10:53 PM 21.0 °F 13.4 °F 18.0 °F 88% 30.38 in 10.0 mi SSE 5.8 mph - N/A   Clear
11:53 PM 21.9 °F 11.7 °F 18.0 °F 85% 30.35 in 10.0 mi SSE 9.2 mph - N/A   Clear